Regional Weather Roundup
Issued by NWS

Home | Current Version | Previous Version | Graphics & Text | Print | Product List | Glossary On
Versions: 1 2 3 4 5 6 7 8 9 10 11 12 13 14 15 16 17 18 19 20 21 22 23 24 25 26 27
000
ASUS45 KBOU 222307
RWRCO

WEATHER ROUNDUP FOR COLORADO
NATIONAL WEATHER SERVICE DENVER/BOULDER CO
500 PM MDT MON MAY 22 2017

NOTE: "FAIR" INDICATES FEW OR NO CLOUDS BELOW 12000 FEET WITH NO
SIGNIFICANT WEATHER AND/OR OBSTRUCTIONS TO VISIBILITY.

COZ001>005-013-030-031-230000-
...NORTHWEST COLORADO...

CITY           SKY/WX    TMP DP  RH WIND       PRES   REMARKS
CRAIG          CLOUDY    60  32  34 N15G21    30.16S
HAYDEN         PTSUNNY   48  37  66 SE9       30.19F
MEEKER         FAIR      62  31  31 SW10      30.16F
RABBIT EARS PA CLOUDY    32  32 100 W10G20    30.30R VSB<1/4 WCI  24
STEAMBOAT SPGS PTSUNNY   45  42  86 E6        30.20F
WALDEN           N/A     39  36  87 NW18      30.27R
$$

COZ006>008-011-230000-
...WEST CENTRAL VALLEYS...

CITY           SKY/WX    TMP DP  RH WIND       PRES   REMARKS
GRAND JUNCTION FAIR      74  28  18 W16G26    30.08F
MONTROSE       FAIR      69  27  20 NW15G25   30.16F
EAGLE          PTSUNNY   59  30  33 N5        30.18R
RIFLE          LGT RAIN  64  32  30 NW25G33   30.14R
DELTA          FAIR      73  26  17 W16G23    30.11F
NUCLA          FAIR      70  21  16 W15G22    30.17F
$$

COZ017>023-064>068-230000-
...SOUTHWEST COLORADO...

CITY           SKY/WX    TMP DP  RH WIND       PRES   REMARKS
DURANGO        FAIR      71  24  17 W17G29    30.07F
CORTEZ         FAIR      72  28  19 NW16G24   30.12F
PAGOSA SPRINGS LGT RAIN  60  33  36 CALM      30.14S
TELLURIDE      FAIR      55  24  29 NW10G24   30.29F
WOLF CREEK PAS PTSUNNY   43  25  49 S7        30.39F
$$

COZ009-010-012-014-032>034-037-058>063-230000-
...CENTRAL COLORADO...

CITY           SKY/WX    TMP DP  RH WIND       PRES   REMARKS
ASPEN          PTSUNNY   57  26  30 N12G23    30.19S
BUENA VISTA    PTSUNNY   57  22  26 W21G26    30.17S
COPPER MTN     LGT SNOW  34  28  80 MISG      30.35R
BERTHOUD PASS  LGT SNOW  25  14  63 MISG      30.30F VSB 1
COTTONWOOD PAS PTSUNNY   48  27  43 SW25G35   30.26S
GUNNISON       PTSUNNY   55  31  39 W14       30.20R
KREMMLING      LGT RAIN  52  36  54 NW12G23   30.24R
LEADVILLE      CLOUDY    42  26  53 NW20G32   30.27F
MONARCH PASS   CLOUDY    36  21  55 W23G35    30.44F
SALIDA         PTSUNNY   67  18  15 W18G30    30.20F
SUNLIGHT       MIX PCPN  39  27  60 SW8       30.36F
WILKERSON PASS PTSUNNY   37  28  70 W8        30.33S
$$

COZ069>075-230000-
...SAN LUIS VALLEY/SANGRE DE CRISTO MOUNTAINS...

CITY           SKY/WX    TMP DP  RH WIND       PRES   REMARKS
ALAMOSA        PTSUNNY   63  24  22 N12G18    30.10F
DEL NORTE      FAIR      66  19  16 W17       30.13S
LA VETA PASS   CLOUDY    41  34  75 N8        30.35F
SAGUACHE       FAIR      63  23  22 N15G23    30.14F
$$

COZ035-036-038>040-230000-
...NORTHERN COLORADO FRONT RANGE...

CITY           SKY/WX    TMP DP  RH WIND       PRES   REMARKS
DENVER INTL AP LGT RAIN  50  44  80 N22       30.15R
DMNS CITY PARK   N/A     51  44  79 NE18G38   30.12S
AURORA         LGT RAIN  50  46  86 N20G36    30.16R
FRONT RANGE AP CLOUDY    50  48  93 N29G37    30.15R
ERIE MUNI ARPT LGT RAIN  50  44  80 NE18G25   30.14R
BOULDER MUN AP PTSUNNY   50  43  76 NE13G18   30.17R
CENTENNIAL     LGT RAIN  53  41  63 N23G33    30.14R
BROOMFIELD     CLOUDY    50  45  81 N25G33    30.14R
FORT COLLINS   LGT RAIN  48  40  73 N28G37    30.19R
LONGMONT       CLOUDY    51  43  74 NE14G22   30.18R
$$

COZ041-046-047-076>085-087-088-230000-
...PIKES PEAK/PALMER DIVIDE AND SOUTHERN FOOTHILLS...

CITY           SKY/WX    TMP DP  RH WIND       PRES   REMARKS
COLO. SPRINGS  PTSUNNY   63  28  26 SW15G21   30.10S
A. F. ACADEMY  PTSUNNY   59  28  31 CALM      30.09S
SCHRIEVER AFB  PTSUNNY   60  26  27 W7        30.09F
CHEYENNE MTN   PTSUNNY   56  29  36 NE10G20   30.07S
ELLICOTT       FAIR     N/A N/A N/A N6        30.07F
FALCON         PTSUNNY   59  26  28 W10G20    30.13R
FORT CARSON    FAIR      62  31  30 NW3       30.07F
LIMON          PTSUNNY   65  32  29 NW17G23   30.05S
MONUMENT HILL  CLOUDY    54  28  37 NW5       30.15R
CANON CITY     NOT AVBL
WALSENBURG     FAIR      66  37  34 NE6       30.08S
TRINIDAD       FAIR      64  31  28 VRB6      30.07F
$$

COZ042>045-048>051-090-091-230000-
...NORTHEAST COLORADO...

CITY           SKY/WX    TMP DP  RH WIND       PRES   REMARKS
GREELEY ARPT   LGT RAIN  47  42  83 N20G31    30.16R
AKRON          LGT RAIN  49  41  74 N28G36    30.11R
BURLINGTON     FAIR      66  42  41 N14       30.00S
WRAY           LGT RAIN  59  41  51 N35G43    30.05R
YUMA           LGT RAIN  50  34  53 N23G29    30.09R
STERLING       LGT RAIN  46  45  93 NW14G20   30.10S
HOLYOKE        NOT AVBL
FORT MORGAN    DRIZZLE   46  40  78 N21G31    30.15R
$$

COZ086-089-092>099-230000-
...SOUTHEAST COLORADO...

CITY           SKY/WX    TMP DP  RH WIND       PRES   REMARKS
PUEBLO         FAIR      68  37  32 CALM      30.01F
LA JUNTA       FAIR      70  41  34 VRB3      30.01F
LAMAR          FAIR      72  42  34 NW10G16   29.97F
SPRINGFIELD      N/A     66  37  34 N13       30.02
$$




USA.gov is the U.S. government's official web portal to all federal, state and local government web resources and services.